• MPC Preparation (Info)

  • MPEC 2020-G62 : 2020 GV1

    The following Minor Planet Electronic Circular may be linked-to from your own Web pages, but must not otherwise be redistributed electronically.

    A form allowing access to any MPEC is at the bottom of this page.


    Read MPEC 2020-G61 Read MPEC 2020-G63


    M.P.E.C. 2020-G62                                 Issued 2020 April 5, 14:49 UT
    
         The Minor Planet Electronic Circulars contain information on unusual
             minor planets and routine data on comets.  They are published
        on behalf of Division F of the International Astronomical Union by the
              Minor Planet Center, Smithsonian Astrophysical Observatory,
                              Cambridge, MA 02138, U.S.A.
    
                 Prepared using the Tamkin Foundation Computer Network
    
                                  MPC@CFA.HARVARD.EDU
                URL https://www.minorplanetcenter.net/    ISSN 1523-6714
    
                                    2020 GV1                                 
    
    
    Observations:
         K20G01V* C2020 04 03.33715 13 14 11.83 -08 56 20.9          20.0 GVEG062G96
         K20G01V  C2020 04 03.34244 13 14 23.42 -08 57 55.4          19.5 GVEG062G96
         K20G01V  C2020 04 03.35301 13 14 46.27 -09 01 02.7          19.9 GVEG062G96
         K20G01V  C2020 04 03.42536 13 17 25.98 -09 22 29.8          20.3 GVEG062I52
         K20G01V  C2020 04 03.42648 13 17 28.51 -09 22 50.1          20.1 GVEG062I52
         K20G01V  C2020 04 03.42760 13 17 31.01 -09 23 09.9          19.6 GVEG062I52
         K20G01V  C2020 04 03.42872 13 17 33.54 -09 23 30.1          19.9 GVEG062I52
         K20G01V  C2020 04 04.40596 14 03 33.85 -14 54 39.8          19.9 GVEG062G96
         K20G01V  C2020 04 04.40666 14 03 36.04 -14 54 54.8          19.9 GVEG062G96
         K20G01V  C2020 04 04.40805 14 03 40.41 -14 55 25.1          19.8 GVEG062G96
         K20G01V  C2020 04 05.36059 15 04 26.06 -20 56 03.2          20.5 GVEG062G96
         K20G01V  C2020 04 05.36152 15 04 29.90 -20 56 23.7          20.4 GVEG062G96
         K20G01V  C2020 04 05.36245 15 04 33.73 -20 56 44.7          20.0 GVEG062G96
         K20G01V  C2020 04 05.36338 15 04 37.53 -20 57 05.3          20.0 GVEG062G96
    
    Observer details:
    G96 Mt. Lemmon Survey.  Observer G. J. Leonard.  Measurers E. J. Christensen, 
       G. A. Farneth, D. C. Fuls, A. R. Gibbs, A. D. Grauer, H. Groeller, R. A. 
       Kowalski, S. M. Larson, G. J. Leonard, T. A. Pruyne, D. Rankin, R. L. Seaman,
        F. C. Shelly, K. W. Wierzchos.  1.5-m reflector + 10K CCD.
    I52 Steward Observatory, Mt. Lemmon Station.  Observer R. A. Kowalski.  
        Measurers E. J. Christensen, G. A. Farneth, D. C. Fuls, A. R. Gibbs, A. D. 
       Grauer, H. Groeller, R. A. Kowalski, S. M. Larson, G. J. Leonard, T. A. 
       Pruyne, D. Rankin, R. L. Seaman, F. C. Shelly, K. W. Wierzchos.  1.0-m 
       reflector + CCD.
    
    Orbital elements:
    2020 GV1                                                 Earth MOID = 0.0022 AU
    Epoch 2020 May 31.0 TT = JDT 2459000.5                  Alexandersen
    M  10.42468              (2000.0)            P               Q
    n   0.29726549     Peri.  209.23522     -0.74540992     +0.66659845
    a   2.2235132      Node    12.57148     -0.60866152     -0.67861851
    e   0.5596776      Incl.    0.85568     -0.27183673     -0.30842087
    P   3.32           H   27.9           G   0.15           U   7
    Residuals in seconds of arc
    200403 G96  1.4-  0.7+    200403 I52  0.2-  0.2+    200405 G96  0.2-  0.1-
    200403 G96  1.1+  0.3-    200403 I52  0.1-  0.1+    200405 G96  0.1+  0.2+
    200403 G96  0.4+  0.7-    200404 G96  0.1+  0.4-    200405 G96  0.2+  0.1-
    200403 I52  0.0   0.2+    200404 G96  0.1-  0.0     200405 G96  0.1-  0.1+
    200403 I52  0.2+  0.1-    200404 G96  0.1-  0.3+
    
    Ephemeris:
    2020 GV1                 a,e,i = 2.22, 0.56, 1                   q = 0.9791
    Date    TT    R. A. (2000) Decl.     Delta      r    Elong.  Phase     V
    2020 03 06    10 48 17.6 +10 26 04   0.1800  1.1711   173.4     5.6    25.0
    ...
    2020 03 21    11 01 29.9 +08 52 08   0.08938 1.0817   162.4    16.2    23.7
    ...
    2020 03 29    11 35 25.6 +04 24 38   0.04633 1.0431   164.0    15.3    22.2
    ...
    2020 04 04    13 42 43.5 -12 23 32   0.01976 1.0193   166.0    13.7    20.2
    2020 04 05    14 39 30.8 -18 33 20   0.01743 1.0158   152.0    27.5    20.4
    2020 04 06    15 52 30.4 -24 24 21   0.01659 1.0125   135.1    44.3    20.7
    ...
    2020 04 12    20 31 00.8 -23 54 09   0.03609 0.9956    78.1    99.8    24.3
    ...
    2020 04 20    21 33 10.3 -18 51 54   0.07609 0.9821    70.6   105.2    26.2
    ...
    2020 05 05    22 04 06.5 -15 45 32   0.1512  0.9861    77.2    94.2    27.1
    
    A. U. Tomatic                (C) Copyright 2020 MPC           M.P.E.C. 2020-G62
    


    Read MPEC 2020-G61 Read MPEC 2020-G63


    MPEC number:

    Enter an MPEC number in one of the following forms:

    • 1997-B01 (the full form)
    • J97B01 (the packed version of the full form)
    • B01 (the abbreviated form)